Skip Page Navigation
NASA JPL Caltech
NASA Logo - Jet Propulsion Laboratory + View the NASA Portal
+ Near-Earth Object (NEO) Program
Search JPL
JPL Home Earth Solar System Stars & Galaxies Technology
JPL Solar System Dynamics
BODIES ORBITS EPHEMERIDES TOOLS PHYSICAL DATA DISCOVERY FAQ SITE MAP
JPL Small-Body Database Browser
Search: [ help ]  
(2005 RZ2)
Classification: Apollo [NEO]          SPK-ID: 3289743
Ephemeris | Orbit Diagram | Orbital Elements | Physical Parameters | Close-Approach Data ]

[ hide orbit diagram ]
Orbit Diagram
Note: Make sure you have Java enabled on your browser to see the applet. This applet is provided as a 3D orbit visualization tool. The applet was implemented using 2-body methods, and hence should not be used for determining accurate long-term trajectories (over several years or decades) or planetary encounter circumstances. For accurate long-term ephemerides, please instead use our Horizons system.
Orbit Viewer

Additional Notes: the orbits shown in the applet are color coded. The planets are white lines, and the asteroid/comet is a blue line. The bright white line indicates the portion of the orbit that is above the ecliptic plane, and the darker portion is below the ecliptic plane. Likewise for the asteroid/comet orbit, the light blue indicates the portion above the ecliptic plane, and the dark blue the portion below the ecliptic plane.

Orbit Viewer applet originally written and kindly provided by Osamu Ajiki (AstroArts), and further modified by Ron Baalke (JPL).


Orbital Elements at Epoch 2456400.5 (2013-Apr-18.0) TDB
Reference: JPL 10 (heliocentric ecliptic J2000)
 Element Value Uncertainty (1-sigma)   Units 
e .103546280078936 5.5757e-08  
a 1.106668574691313 2.7088e-09 AU
q .9920771605017692 6.2539e-08 AU
i 13.1607291169827 3.9393e-05 deg
node 155.0151939416318 1.2796e-05 deg
peri 280.1418634787964 0.00010887 deg
M 111.7697401829365 9.4708e-05 deg
tp 2456268.477931135075
(2012-Dec-06.97793113)
0.00011207 JED
period 425.2308783538621
1.16
1.5613e-06
4.275e-09
d
yr
n .8465989144382425 3.1084e-09 deg/d
Q 1.221259988880857 2.9893e-09 AU
  Orbit Determination Parameters
   # obs. used (total)      37  
   data-arc span      2740 days (7.50 yr)  
   first obs. used      2005-09-01  
   last obs. used      2013-03-03  
   planetary ephem.      DE405  
   SB-pert. ephem.      SB405-CPV-2  
   condition code      0  
   fit RMS      .54174  
   data source      ORB  
   producer      Otto Matic  
   solution date      2013-Mar-04 01:50:06  

Additional Information
 Earth MOID = .0791754 AU 
 T_jup = 5.595 
[ show covariance matrix ]

Ephemeris | Orbit Diagram | Orbital Elements | Physical Parameters | Close-Approach Data ]

Physical Parameter Table
Parameter Symbol Value Units Sigma Reference Notes
absolute magnitude H 23.201 mag .45627 10 autocmod 2.5b

[ show close-approach data ]
Ephemeris | Orbit Diagram | Orbital Elements | Physical Parameters | Close-Approach Data ]
ABOUT SSD CREDITS/AWARDS PRIVACY/COPYRIGHT GLOSSARY LINKS
FirstGov 2013-Jun-18 07:11 UT
(server date/time)  
NASA Home Page
Site Manager:   Donald K. Yeomans
Webmaster  Alan B. Chamberlin